TimeCDT,TemperatureF,Dew PointF,Humidity,Sea Level PressureIn,VisibilityMPH,Wind Direction,Wind SpeedMPH,Gust SpeedMPH,PrecipitationIn,Events,Conditions,WindDirDegrees,DateUTC
12:53 AM,66.2,64.4,94,29.93,10.0,Calm,Calm,-,N/A,,Overcast,0,2013-05-10 05:53:00
1:53 AM,66.9,64.0,90,29.91,9.0,North,6.9,-,N/A,,Overcast,360,2013-05-10 06:53:00
2:53 AM,66.2,64.4,94,29.91,5.0,Calm,Calm,-,N/A,,Overcast,0,2013-05-10 07:53:00
3:53 AM,64.9,63.0,93,29.90,4.0,Calm,Calm,-,0.01,Rain,Light Rain,0,2013-05-10 08:53:00
4:03 AM,66.2,64.4,94,29.93,4.0,NNW,8.1,-,N/A,Thunderstorm,Overcast,340,2013-05-10 09:03:00
4:17 AM,66.2,64.4,94,29.93,5.0,North,5.8,-,N/A,Thunderstorm,Overcast,350,2013-05-10 09:17:00
4:35 AM,66.2,64.4,94,29.92,6.0,Calm,Calm,-,N/A,Thunderstorm,Overcast,0,2013-05-10 09:35:00
4:42 AM,66.2,64.4,94,29.92,6.0,East,3.5,-,N/A,,Overcast,80,2013-05-10 09:42:00
4:53 AM,66.0,63.0,90,29.91,5.0,East,3.5,-,N/A,,Overcast,80,2013-05-10 09:53:00
5:51 AM,64.4,62.6,94,29.91,5.0,WSW,5.8,-,0.15,Rain,Rain,250,2013-05-10 10:51:00
5:53 AM,64.9,62.1,90,29.90,5.0,West,4.6,-,0.15,Rain,Light Rain,260,2013-05-10 10:53:00
6:29 AM,64.4,62.6,94,29.92,7.0,Calm,Calm,-,0.06,Rain,Light Rain,0,2013-05-10 11:29:00
6:53 AM,64.4,60.8,88,29.94,10.0,Calm,Calm,-,N/A,,Clear,0,2013-05-10 11:53:00
7:53 AM,66.0,62.1,87,29.94,10.0,West,5.8,-,N/A,,Clear,270,2013-05-10 12:53:00
8:53 AM,66.0,62.1,87,29.96,10.0,West,9.2,-,N/A,,Scattered Clouds,270,2013-05-10 13:53:00
9:53 AM,68.0,62.1,81,29.94,10.0,West,9.2,-,N/A,,Partly Cloudy,260,2013-05-10 14:53:00
10:18 AM,69.8,62.6,78,29.95,10.0,WNW,6.9,-,N/A,,Mostly Cloudy,290,2013-05-10 15:18:00
10:53 AM,71.1,63.0,75,29.95,10.0,WNW,10.4,-,N/A,,Mostly Cloudy,290,2013-05-10 15:53:00
11:53 AM,73.9,63.0,68,29.95,10.0,WNW,10.4,-,N/A,,Mostly Cloudy,290,2013-05-10 16:53:00
12:00 PM,73.4,60.8,65,29.96,10.0,NW,8.1,-,N/A,,Mostly Cloudy,310,2013-05-10 17:00:00
12:53 PM,75.9,62.1,62,29.94,10.0,Variable,4.6,-,N/A,,Mostly Cloudy,0,2013-05-10 17:53:00
1:00 PM,75.2,62.6,65,29.95,10.0,Calm,Calm,-,N/A,,Partly Cloudy,0,2013-05-10 18:00:00
1:53 PM,75.9,59.0,56,29.94,10.0,Variable,6.9,-,N/A,,Mostly Cloudy,0,2013-05-10 18:53:00
2:53 PM,75.9,57.9,54,29.94,10.0,WNW,11.5,-,N/A,,Mostly Cloudy,300,2013-05-10 19:53:00
3:53 PM,78.1,57.9,50,29.93,10.0,WNW,11.5,-,N/A,,Mostly Cloudy,290,2013-05-10 20:53:00
4:53 PM,78.1,57.0,48,29.92,10.0,NW,15.0,18.4,N/A,,Mostly Cloudy,310,2013-05-10 21:53:00
5:53 PM,75.9,55.9,50,29.91,10.0,NNW,11.5,-,N/A,,Clear,340,2013-05-10 22:53:00
6:53 PM,75.0,55.0,50,29.92,10.0,NNW,10.4,-,N/A,,Clear,330,2013-05-10 23:53:00
7:53 PM,72.0,55.0,55,29.95,10.0,NNW,12.7,-,N/A,,Clear,340,2013-05-11 00:53:00
8:53 PM,69.1,55.9,63,29.96,10.0,NNW,8.1,-,N/A,,Clear,340,2013-05-11 01:53:00
9:53 PM,66.9,55.0,66,30.00,10.0,NNW,9.2,-,N/A,,Clear,340,2013-05-11 02:53:00
10:53 PM,64.0,54.0,70,30.03,10.0,NNW,4.6,-,N/A,,Clear,330,2013-05-11 03:53:00
11:53 PM,63.0,54.0,72,30.03,10.0,NW,4.6,-,N/A,,Clear,320,2013-05-11 04:53:00